| time (UTC) | temp F | wind direction | speed MPH | gust MPH | rain 1hr in | rain 24hr in | rain mn in | humidity % | barometer mb |
| 20260506044504 | 63 | 339 | 1.0 | 3.0 | 0.00 | 0.00 | 0.00 | 71 | 1013.6 |
| 20260506043004 | 63 | 217 | 1.0 | 2.0 | 0.00 | 0.00 | 0.00 | 71 | 1013.3 |
| 20260506041505 | 63 | 206 | 3.0 | 5.0 | 0.00 | 0.00 | 0.00 | 70 | 1013.2 |
| 20260506040004 | 64 | 271 | 2.0 | 3.0 | 0.00 | 0.00 | 0.00 | 64 | 1013.1 |
| 20260506033004 | 64 | 215 | 1.0 | 3.0 | 0.00 | 0.00 | 0.00 | 67 | 1012.7 |
| 20260506031504 | 64 | 240 | 1.0 | 3.0 | 0.00 | 0.00 | 0.00 | 65 | 1012.6 |
| 20260506030008 | 63 | 249 | 2.0 | 5.0 | 0.00 | 0.00 | 0.00 | 66 | 1012.5 |
| 20260506021508 | 63 | 194 | 0.0 | 0.0 | 0.00 | 0.00 | 0.00 | 74 | 1012.4 |
| 20260506020008 | 63 | 119 | 0.0 | 2.0 | 0.00 | 0.00 | 0.00 | 72 | 1012.5 |
| 20260506014510 | 63 | 191 | 2.0 | 3.0 | 0.00 | 0.00 | 0.00 | 72 | 1012.6 |
| 20260506011511 | 64 | 237 | 0.0 | 4.0 | 0.00 | 0.00 | 0.00 | 75 | 1012.6 |
| 20260506004511 | 65 | 224 | 3.0 | 4.0 | 0.00 | 0.00 | 0.00 | 66 | 1012.6 |
| 20260506003013 | 66 | 183 | 0.0 | 6.0 | 0.00 | 0.00 | 0.00 | 60 | 1012.6 |
| 20260505234514 | 65 | 200 | 3.0 | 5.0 | 0.00 | 0.00 | 0.00 | 61 | 1013.2 |
| 20260505233016 | 63 | 177 | 3.0 | 5.0 | 0.00 | 0.00 | 0.00 | 70 | 1013.5 |
| 20260505224515 | 63 | 273 | 2.0 | 7.0 | 0.00 | 0.00 | 0.00 | 76 | 1013.8 |
| 20260505223014 | 64 | 244 | 6.0 | 8.0 | 0.00 | 0.00 | 0.00 | 75 | 1013.7 |
| 20260505221518 | 64 | 253 | 3.0 | 6.0 | 0.00 | 0.00 | 0.00 | 69 | 1013.6 |
| 20260505220023 | 64 | 275 | 1.0 | 4.0 | 0.00 | 0.00 | 0.00 | 71 | 1013.7 |
| 20260505213009 | 64 | 305 | 1.0 | 2.0 | 0.00 | 0.00 | 0.00 | 73 | 1013.9 |
| 20260505211509 | 63 | 67 | 0.0 | 3.0 | 0.00 | 0.00 | 0.00 | 73 | 1013.7 |
| 20260505210006 | 63 | 89 | 0.0 | 3.0 | 0.00 | 0.00 | 0.00 | 73 | 1014.0 |
| 20260505204513 | 63 | 101 | 1.0 | 3.0 | 0.00 | 0.00 | 0.00 | 70 | 1014.1 |
| 20260505203027 | 63 | 147 | 0.0 | 0.0 | 0.00 | 0.00 | 0.00 | 70 | 1014.5 |
| 20260505201503 | 63 | 136 | 0.0 | 0.0 | 0.00 | 0.00 | 0.00 | 73 | 1014.7 |
| 20260505200010 | 63 | 130 | 0.0 | 1.0 | 0.00 | 0.00 | 0.00 | 75 | 1014.8 |
| 20260505194509 | 63 | 153 | 0.0 | 2.0 | 0.00 | 0.00 | 0.00 | 77 | 1014.7 |
| 20260505193014 | 63 | 95 | 0.0 | 1.0 | 0.00 | 0.00 | 0.00 | 81 | 1014.5 |
| 20260505183017 | 64 | 90 | 1.0 | 3.0 | 0.00 | 0.00 | 0.00 | 82 | 1014.4 |
| 20260505180023 | 64 | 92 | 1.0 | 4.0 | 0.00 | 0.00 | 0.00 | 81 | 1014.4 |
| 20260505173008 | 64 | 88 | 6.0 | 10.0 | 0.00 | 0.00 | 0.00 | 80 | 1014.4 |
| 20260505171511 | 65 | 61 | 6.0 | 11.0 | 0.00 | 0.00 | 0.00 | 79 | 1014.4 |
| 20260505170019 | 65 | 98 | 5.0 | 12.0 | 0.00 | 0.00 | 0.00 | 79 | 1014.6 |
| 20260505164523 | 65 | 68 | 5.0 | 11.0 | 0.00 | 0.00 | 0.00 | 77 | 1014.7 |
| 20260505163004 | 65 | 109 | 7.0 | 13.0 | 0.00 | 0.00 | 0.00 | 78 | 1014.8 |
| 20260505161509 | 66 | 99 | 7.0 | 13.0 | 0.00 | 0.00 | 0.00 | 73 | 1014.9 |
| 20260505153022 | 67 | 117 | 5.0 | 11.0 | 0.00 | 0.00 | 0.00 | 75 | 1015.0 |
| 20260505151508 | 67 | 121 | 4.0 | 9.0 | 0.00 | 0.00 | 0.00 | 77 | 1015.0 |
| 20260505124513 | 69 | 80 | 6.0 | 10.0 | 0.00 | 0.00 | 0.00 | 66 | 1015.4 |
| 20260505123003 | 69 | 96 | 4.0 | 7.0 | 0.00 | 0.00 | 0.00 | 68 | 1015.6 |
| 20260505121508 | 69 | 81 | 4.0 | 8.0 | 0.00 | 0.00 | 0.00 | 70 | 1015.7 |
| 20260505120007 | 69 | 90 | 3.0 | 7.0 | 0.00 | 0.00 | 0.00 | 71 | 1015.8 |
| 20260505114514 | 69 | 94 | 3.0 | 7.0 | 0.00 | 0.00 | 0.00 | 73 | 1015.9 |
| 20260505113021 | 68 | 67 | 4.0 | 10.0 | 0.00 | 0.00 | 0.00 | 71 | 1016.1 |
| 20260505111506 | 68 | 76 | 5.0 | 9.0 | 0.00 | 0.00 | 0.00 | 71 | 1016.1 |
| 20260505101519 | 67 | 86 | 3.0 | 8.0 | 0.00 | 0.00 | 0.00 | 73 | 1016.3 |
| 20260505100004 | 68 | 82 | 4.0 | 8.0 | 0.00 | 0.00 | 0.00 | 69 | 1016.2 |
| 20260505094506 | 67 | 77 | 4.0 | 9.0 | 0.00 | 0.00 | 0.00 | 71 | 1016.3 |
| 20260505093020 | 68 | 115 | 3.0 | 9.0 | 0.00 | 0.00 | 0.00 | 69 | 1016.2 |
| 20260505091513 | 67 | 106 | 4.0 | 8.0 | 0.00 | 0.00 | 0.00 | 68 | 1016.4 |
| 20260505090021 | 67 | 85 | 4.0 | 7.0 | 0.00 | 0.00 | 0.00 | 67 | 1016.5 |
| 20260505084508 | 66 | 112 | 3.0 | 6.0 | 0.00 | 0.00 | 0.00 | 66 | 1016.6 |
| 20260505083009 | 67 | 63 | 2.0 | 6.0 | 0.00 | 0.00 | 0.00 | 67 | 1016.4 |
| 20260505081512 | 67 | 84 | 2.0 | 6.0 | 0.00 | 0.00 | 0.00 | 62 | 1016.4 |
| 20260505080018 | 67 | 92 | 3.0 | 6.0 | 0.00 | 0.00 | 0.00 | 59 | 1016.3 |
| 20260505074524 | 67 | 90 | 3.0 | 5.0 | 0.00 | 0.00 | 0.00 | 58 | 1016.2 |
| 20260505073008 | 67 | 78 | 1.0 | 3.0 | 0.00 | 0.00 | 0.00 | 59 | 1016.5 |
| 20260505071511 | 67 | 308 | 1.0 | 3.0 | 0.00 | 0.00 | 0.00 | 62 | 1016.5 |
| 20260505070017 | 67 | 300 | 0.0 | 2.0 | 0.00 | 0.00 | 0.00 | 61 | 1016.3 |
| 20260505064524 | 67 | 346 | 0.0 | 2.0 | 0.00 | 0.00 | 0.00 | 62 | 1016.4 |
| 20260505063026 | 65 | 282 | 0.0 | 2.0 | 0.00 | 0.00 | 0.00 | 66 | 1016.4 |
| 20260505061512 | 65 | 257 | 1.0 | 4.0 | 0.00 | 0.00 | 0.00 | 67 | 1016.5 |